KZR127 UAAA-UACC

Flight info

Callsign KZR127
Flight time N/A
Altitude 38000
Route ETEDA1J ETEDA W333 BANOS BANOS1G
Aircraft B763/H-SDE3FGHIM3RWXY/LB1

Departure

Time 2026-04-23 15:49
Airport Almaty International Airport (UAAA)

Arrival

Time N/A
Airport Nursultan Nazarbayev International Airport (UACC)
Time Latitude Longitude Altitude Speed Heading
2026-04-23 14:41 43.34694 77.01540 2224 ft 0 kts 245°
2026-04-23 15:39 43.34688 77.01524 2224 ft 1 kts 240°
2026-04-23 15:39 43.34684 77.01513 2224 ft 0 kts 246°
2026-04-23 15:41 43.34684 77.01511 2224 ft 2 kts 246°
2026-04-23 15:41 43.34671 77.01472 2225 ft 4 kts 246°
2026-04-23 15:42 43.34669 77.01450 2225 ft 1 kts 272°
2026-04-23 15:42 43.34678 77.01434 2225 ft 3 kts 326°
2026-04-23 15:42 43.34715 77.01417 2224 ft 7 kts 341°
2026-04-23 15:42 43.34771 77.01397 2222 ft 9 kts
2026-04-23 15:43 43.34816 77.01459 2221 ft 10 kts 75°
2026-04-23 15:43 43.34825 77.01530 2221 ft 10 kts 98°
2026-04-23 15:43 43.34810 77.01698 2222 ft 28 kts 94°
2026-04-23 15:43 43.34796 77.01992 2222 ft 31 kts 94°
2026-04-23 15:44 43.34782 77.02291 2225 ft 30 kts 94°
2026-04-23 15:44 43.34781 77.02576 2226 ft 29 kts 75°
2026-04-23 15:44 43.34883 77.02821 2224 ft 29 kts 57°
2026-04-23 15:44 43.34998 77.03055 2223 ft 29 kts 56°
2026-04-23 15:45 43.35112 77.03288 2224 ft 28 kts 54°
2026-04-23 15:45 43.35223 77.03511 2227 ft 27 kts 57°
2026-04-23 15:45 43.35326 77.03721 2230 ft 26 kts 57°
2026-04-23 15:45 43.35426 77.03921 2230 ft 25 kts 55°
2026-04-23 15:46 43.35523 77.04116 2231 ft 24 kts 56°
2026-04-23 15:46 43.35617 77.04311 2233 ft 23 kts 54°
2026-04-23 15:46 43.35721 77.04482 2234 ft 23 kts 48°
2026-04-23 15:46 43.35820 77.04642 2235 ft 15 kts 56°
2026-04-23 15:47 43.35864 77.04742 2235 ft 14 kts 60°
2026-04-23 15:47 43.35924 77.04895 2235 ft 20 kts 63°
2026-04-23 15:47 43.35966 77.05065 2236 ft 17 kts 113°
2026-04-23 15:47 43.35884 77.05165 2238 ft 15 kts 144°
2026-04-23 15:48 43.35813 77.05164 2239 ft 9 kts 231°
2026-04-23 15:48 43.35762 77.05061 2239 ft 29 kts 236°
2026-04-23 15:48 43.35506 77.04538 2239 ft 103 kts 237°
2026-04-23 15:48 43.34963 77.03452 2337 ft 164 kts 234°
2026-04-23 15:49 43.34261 77.02073 2833 ft 191 kts 234°
2026-04-23 15:49 43.33449 77.00526 3493 ft 211 kts 234°
2026-04-23 15:49 43.32547 76.98812 3638 ft 235 kts 235°
2026-04-23 15:49 43.31515 76.96796 3685 ft 273 kts 236°
2026-04-23 15:50 43.30388 76.94544 3965 ft 301 kts 237°
2026-04-23 15:50 43.29201 76.92093 4586 ft 318 kts 238°
2026-04-23 15:50 43.27921 76.89421 4606 ft 358 kts 238°
2026-04-23 15:50 43.26477 76.86395 4428 ft 401 kts 237°
2026-04-23 15:51 43.24900 76.83086 4309 ft 425 kts 237°
2026-04-23 15:51 43.23328 76.79788 4189 ft 405 kts 237°
2026-04-23 15:51 43.21842 76.76666 4056 ft 379 kts 238°
2026-04-23 15:51 43.20455 76.73749 4268 ft 349 kts 238°
2026-04-23 15:52 43.19184 76.71079 4547 ft 330 kts 238°
2026-04-23 15:52 43.17921 76.68417 4687 ft 342 kts 238°
2026-04-23 15:52 43.16764 76.65575 5432 ft 348 kts 248°
2026-04-23 15:52 43.16066 76.62399 6289 ft 352 kts 264°
2026-04-23 15:53 43.16100 76.59071 7282 ft 355 kts 281°
2026-04-23 15:53 43.16849 76.55893 8124 ft 362 kts 297°
2026-04-23 15:53 43.17584 76.54221 8615 ft 366 kts 307°
2026-04-23 15:53 43.19360 76.51724 9509 ft 373 kts 323°
2026-04-23 15:54 43.21610 76.49992 10447 ft 380 kts 339°
2026-04-23 15:54 43.24204 76.49159 11387 ft 387 kts 355°
2026-04-23 15:54 43.26894 76.49333 12417 ft 393 kts 10°
2026-04-23 15:54 43.29326 76.50405 13312 ft 397 kts 24°
2026-04-23 15:55 43.31644 76.52447 14323 ft 401 kts 40°
2026-04-23 15:55 43.33513 76.55296 15236 ft 404 kts 56°
2026-04-23 15:55 43.34763 76.58711 16174 ft 405 kts 72°
2026-04-23 15:55 43.35326 76.62472 17066 ft 406 kts 88°
2026-04-23 15:56 43.35132 76.66291 18008 ft 403 kts 105°
2026-04-23 15:56 43.34176 76.69848 18821 ft 399 kts 123°
2026-04-23 15:56 43.32670 76.72964 19876 ft 389 kts 128°
2026-04-23 15:56 43.31300 76.76185 20533 ft 401 kts 117°
2026-04-23 15:57 43.30637 76.80031 20400 ft 432 kts 94°
2026-04-23 15:57 43.30821 76.84182 20593 ft 455 kts 82°
2026-04-23 15:57 43.31881 76.88450 19948 ft 494 kts 63°
2026-04-23 15:57 43.34109 76.91920 20456 ft 491 kts 39°
2026-04-23 15:58 43.36918 76.94726 20102 ft 518 kts 31°
2026-04-23 15:58 43.40123 76.97201 19684 ft 542 kts 27°
2026-04-23 15:58 43.43523 76.99687 19520 ft 558 kts 26°
2026-04-23 15:58 43.46979 77.02154 19354 ft 569 kts 26°
2026-04-23 15:59 43.50513 77.04613 19177 ft 564 kts 25°
2026-04-23 15:59 43.53939 77.06948 19014 ft 532 kts 24°
2026-04-23 15:59 43.57200 77.09121 18805 ft 506 kts 24°
2026-04-23 15:59 43.60307 77.11140 18622 ft 484 kts 23°
2026-04-23 16:00 43.63314 77.13047 18319 ft 468 kts 22°
2026-04-23 16:00 43.66238 77.14848 18062 ft 462 kts 22°
2026-04-23 16:00 43.69234 77.16632 17826 ft 478 kts 21°
2026-04-23 16:00 43.72366 77.18398 17877 ft 496 kts 18°
2026-04-23 16:01 43.75700 77.19704 18429 ft 499 kts
2026-04-23 16:01 43.79037 77.20161 19207 ft 492 kts 355°
2026-04-23 16:01 43.81195 77.19884 19574 ft 492 kts 346°
2026-04-23 16:02 43.84401 77.18545 20550 ft 481 kts 332°
2026-04-23 16:02 43.87223 77.16250 21587 ft 469 kts 318°
2026-04-23 16:02 43.89523 77.13138 22625 ft 456 kts 304°
2026-04-23 16:02 43.91126 77.09494 23595 ft 442 kts 289°
2026-04-23 16:03 43.92108 77.05550 24582 ft 430 kts 283°
2026-04-23 16:03 43.92988 77.01657 25688 ft 419 kts 283°
2026-04-23 16:03 43.94003 76.97913 26391 ft 419 kts 289°
2026-04-23 16:03 43.95444 76.94369 26916 ft 429 kts 300°
2026-04-23 16:04 43.97384 76.91232 27387 ft 437 kts 304°
2026-04-23 16:04 43.99470 76.88012 27071 ft 458 kts 305°
2026-04-23 16:04 44.01622 76.84651 26795 ft 478 kts 305°
2026-04-23 16:04 44.03869 76.81108 26541 ft 494 kts 306°
2026-04-23 16:05 44.05371 76.78720 26375 ft 503 kts 306°
2026-04-23 16:05 44.08461 76.73791 26082 ft 499 kts 305°
2026-04-23 16:05 44.10710 76.70224 25848 ft 480 kts 306°
2026-04-23 16:05 44.12857 76.66843 25581 ft 464 kts 306°
2026-04-23 16:06 44.14958 76.63545 25293 ft 451 kts 306°
2026-04-23 16:06 44.17009 76.60352 24980 ft 438 kts 306°
2026-04-23 16:06 44.19009 76.57251 24648 ft 425 kts 306°
2026-04-23 16:06 44.20974 76.54211 24287 ft 422 kts 306°
2026-04-23 16:07 44.22960 76.51129 23955 ft 439 kts 307°
2026-04-23 16:07 44.25033 76.47882 23679 ft 462 kts 307°
2026-04-23 16:07 44.27164 76.44529 23420 ft 455 kts 307°
2026-04-23 16:07 44.29213 76.41323 23154 ft 440 kts 306°
2026-04-23 16:08 44.31211 76.38193 22876 ft 427 kts 306°
2026-04-23 16:08 44.33172 76.35126 22533 ft 415 kts 306°
2026-04-23 16:08 44.35077 76.32153 22194 ft 413 kts 306°
2026-04-23 16:08 44.36996 76.29158 21857 ft 414 kts 306°
2026-04-23 16:09 44.38917 76.26157 21527 ft 413 kts 306°
2026-04-23 16:09 44.40827 76.23208 21276 ft 419 kts 308°
2026-04-23 16:09 44.41258 76.22584 21237 ft 424 kts 308°
2026-04-23 16:09 44.43093 76.19918 21027 ft 448 kts 308°
2026-04-23 16:10 44.45281 76.16653 20838 ft 463 kts 307°
2026-04-23 16:10 44.47404 76.13440 20644 ft 444 kts 307°
2026-04-23 16:10 44.49440 76.10321 20413 ft 428 kts 306°
2026-04-23 16:10 44.51409 76.07272 20145 ft 414 kts 306°
2026-04-23 16:11 44.53288 76.04319 19853 ft 402 kts 305°
2026-04-23 16:11 44.55159 76.01323 19558 ft 422 kts 305°
2026-04-23 16:11 44.57115 75.98081 19427 ft 451 kts 304°
2026-04-23 16:11 44.59150 75.94656 19381 ft 470 kts 304°
2026-04-23 16:12 44.61278 75.91032 19264 ft 491 kts 304°
2026-04-23 16:12 44.63500 75.87241 19197 ft 509 kts 305°
2026-04-23 16:12 44.65775 75.83625 20399 ft 502 kts 308°
2026-04-23 16:12 44.68230 75.80174 21861 ft 507 kts 311°
2026-04-23 16:13 44.70919 75.76850 22789 ft 519 kts 315°
2026-04-23 16:13 44.76906 75.70791 24318 ft 537 kts 322°
2026-04-23 16:13 44.80189 75.68130 23824 ft 566 kts 326°
2026-04-23 16:14 44.83744 75.65597 22400 ft 574 kts 330°
2026-04-23 16:14 44.86812 75.63706 23955 ft 554 kts 334°
2026-04-23 16:14 44.89895 75.62264 25417 ft 547 kts 338°
2026-04-23 16:14 44.93663 75.61011 25271 ft 572 kts 345°
2026-04-23 16:15 44.97701 75.60162 24692 ft 589 kts 348°
2026-04-23 16:15 45.01725 75.59409 24535 ft 590 kts 348°
2026-04-23 16:15 45.05828 75.58655 24384 ft 582 kts 348°
2026-04-23 16:15 45.09749 75.57950 24271 ft 567 kts 348°
2026-04-23 16:16 45.13651 75.57268 24125 ft 556 kts 348°
2026-04-23 16:16 45.17457 75.56636 23973 ft 549 kts 348°
2026-04-23 16:16 45.21196 75.56031 23808 ft 543 kts 348°
2026-04-23 16:16 45.24940 75.55443 23633 ft 538 kts 348°
2026-04-23 16:17 45.28669 75.54876 23463 ft 534 kts 349°
2026-04-23 16:17 45.32328 75.54336 23302 ft 531 kts 348°
2026-04-23 16:17 45.35994 75.53810 23128 ft 529 kts 349°
2026-04-23 16:17 45.39618 75.53307 22968 ft 527 kts 349°
2026-04-23 16:18 45.43226 75.52822 22926 ft 522 kts 349°
2026-04-23 16:18 45.46854 75.52351 22752 ft 520 kts 349°
2026-04-23 16:18 45.50462 75.51897 22583 ft 519 kts 349°
2026-04-23 16:18 45.54023 75.51462 22424 ft 518 kts 350°
2026-04-23 16:19 45.57618 75.51038 22264 ft 517 kts 350°
2026-04-23 16:19 45.61221 75.50629 22106 ft 516 kts 350°
2026-04-23 16:19 45.64762 75.50240 21951 ft 516 kts 350°
2026-04-23 16:19 45.68341 75.49874 21827 ft 515 kts 351°
2026-04-23 16:20 45.71885 75.49589 22233 ft 500 kts 352°
2026-04-23 16:20 45.75218 75.49442 23526 ft 466 kts 352°
2026-04-23 16:20 45.78428 75.49358 23441 ft 466 kts 352°
2026-04-23 16:20 45.81685 75.49279 23147 ft 471 kts 352°
2026-04-23 16:21 45.84946 75.49207 22873 ft 475 kts 353°